FLOCK 3K-2 (43895 NORAD) Tracking and Keplerian Element Data

This shows tracking and keplerian element data for the satellite.

Feedback or suggestion? Click here.




ElementValue
Catalog43895
NameFLOCK 3K-2
Epoch Orbit458
Epoch Day26.16426566
Epoch Year2019
RAAN295.2452
Inclination97.2995
Eccentricity0.002566
Argument of Perigee139.319
Mean Anonmoly220.997
Mean Motion15.23506618
Decay Rate9.27E-06
L11 43895U 18111V 19026.16426566 .00000927 00000-0 41427-4 0 9995
L22 43895 97.2995 295.2452 0025660 139.3190 220.9970 15.23506618 4589

Live tracking and technical data element details for FLOCK 3K-2 (NORAD 43895). FLOCK 3K-2 can be tracked NOW for your location showing map with azimuth and elevation plus other details from your city location.

Track the satellite on the map from your city or location and see movement details for azimuth, elevation, latitude, longitude, range, height, and movement on the map or in text.







IsCatalogInMostPopularTable: catalog: 43895, numindb: 111
Update: records affected: 1



GetName: 43895 FLOCK 3K-2

Hit Count: updated at: Sun, 21 Jul 2019 15:41:44 GMT